This demonstration page uses our WeatherBlox Daily Observations layout. Learn more.

Left ArrowRight Arrow

Hourly Observations for November 3, 2018

Temp ( °F °C ) Dew Point ( °F °C ) Humidity (%) Winds ( mph kmh ) Pressure ( in mb ) Visibility ( mi km ) Precip ( " mm )
12:53 am 00:53 Cloudy 42 5.6 39 3.9 89 89 WSW 6 9 29.91 1013 10 16 N/A
1:53 am 01:53 Mostly Cloudy 42 5.6 39 3.9 89 89 W 7 11 29.93 1014 10 16 N/A
2:53 am 02:53 Clear 40 4.4 38 3.3 93 93 W 5 7 29.95 1014 10 16 N/A
3:53 am 03:53 Clear 38 3.3 35 1.7 89 89 WSW 5 7 29.96 1015 10 16 N/A
4:53 am 04:53 Clear 37 2.8 34 1.1 89 89 W 3 6 29.98 1015 8 13 N/A
5:53 am 05:53 Clear 37 2.8 35 1.7 93 93 W 6 9 30.02 1017 7 11 N/A
6:53 am 06:53 Clear with Mist and Fog 36 2.2 33 0.6 89 89 WSW 5 7 30.06 1018 6 10 N/A
7:44 am 07:44 Clear with Mist and Fog 34 1.1 31 -0.6 89 89 N N/A 30.12 1020 2 3 N/A
7:50 am 07:50 Clear with Mist and Fog 34 1 30 -1 87 87 N N/A 30.12 1020 2 2 N/A
7:53 am 07:53 Clear with Mist and Fog 33 0.6 30 -1.1 89 89 N N/A 30.07 1018 2 2 N/A
7:57 am 07:57 Clear with Mist and Fog 33 0.6 30 -1.1 89 89 N N/A 30.12 1020 2 3 N/A
8:06 am 08:06 Partly Cloudy with Mist and Fog 32 undefined 29 -1.7 88 88 N N/A 30.12 1020 2 3 N/A
8:46 am 08:46 Sunny with Mist and Fog 34 1.1 31 -0.6 89 89 N N/A 30.12 1020 3 5 N/A
8:53 am 08:53 Sunny with Mist and Fog 35 1.7 32 undefined 89 89 N N/A 30.12 1020 3 5 N/A
9:53 am 09:53 Sunny 40 4.4 39 3.9 97 97 N N/A 30.15 1021 9 14 N/A
10:53 am 10:53 Sunny 45 7.2 40 4.4 83 83 N N/A 30.18 1022 10 16 N/A
11:53 am 11:53 Sunny 49 9.4 38 3.3 66 66 SSW 5 7 30.20 1023 10 16 N/A
12:53 pm 12:53 Sunny 52 11.1 36 2.2 55 55 WSW 7 11 30.22 1024 10 16 N/A
1:53 pm 13:53 Sunny 53 11.7 36 2.2 52 52 VRB 5 7 30.22 1023 10 16 N/A
2:53 pm 14:53 Mostly Sunny 54 12.2 36 2.2 51 51 VRB 6 9 30.21 1023 10 16 N/A
3:53 pm 15:53 Mostly Sunny 55 12.8 36 2.2 49 49 N N/A 30.21 1023 10 16 N/A
4:53 pm 16:53 Sunny 55 12.8 37 2.8 51 51 N N/A 30.21 1023 10 16 N/A
5:53 pm 17:53 Partly Cloudy 53 11.7 38 3.3 57 57 N N/A 30.24 1024 10 16 N/A
6:53 pm 18:53 Mostly Clear 46 7.8 41 5 83 83 N N/A 30.25 1024 10 16 N/A
7:53 pm 19:53 Clear 42 5.6 38 3.3 85 85 N N/A 30.27 1025 10 16 N/A
8:53 pm 20:53 Clear 40 4.4 37 2.8 89 89 N N/A 30.28 1026 9 14 N/A
9:53 pm 21:53 Clear 40 4.4 36 2.2 86 86 N N/A 30.29 1026 10 16 N/A
10:53 pm 22:53 Clear 41 5 36 2.2 82 82 ENE 3 6 30.31 1027 10 16 N/A
11:53 pm 23:53 Clear 40 4.4 36 2.2 86 86 E 3 6 30.32 1027 10 16 N/A

Powered by AerisWeather